Weather History for Lamoni, IA

Change the Weather History Date:

Friday, March 29, 2013

  Actual Average Record
Temperature  
Mean Temperature 50 °F 46 °F  
Max Temperature 65 °F 56 °F 86 °F (1986)
Min Temperature 35 °F 35 °F 9 °F (1969)
Degree Days  
Heating Degree Days 15 19  
Month to date heating degree days 928 735  
Since 1 July heating degree days 5326 5452  
Cooling Degree Days 0 0  
Month to date cooling degree days 0 0  
Year to date cooling degree days 0 0  
Moisture  
Dew Point 31 °F    
Average Humidity 55    
Maximum Humidity 82    
Minimum Humidity 27    
Precipitation  
Precipitation 0.00 in 0.09 in 1.01 in (2012)
Month to date precipitation 1.37 2.08  
Sea Level Pressure  
Sea Level Pressure 30.21 in    
Wind  
Wind Speed 7 mph (ESE)    
Max Wind Speed 12 mph    
Max Gust Speed 17 mph    
Visibility 10 miles    
Events      
T = Trace of Precipitation, MM = Missing Value Source: NWS Daily Summary

Daily Weather History Graph

Daily Weather History Graph

Search for Another Location

Airport:

Trip Planner

Search our weather history database for the weather conditions in past years. The results will help you decide how hot, cold, wet, or windy it might be!

Date:

Astronomy

Mar. 29, 2013 Rise Set
Actual Time 7:03 AM CDT 7:37 PM CDT
Civil Twilight 6:36 AM CDT 8:04 PM CDT
Nautical Twilight 6:03 AM CDT 8:37 PM CDT
Astronomical Twilight 5:30 AM CDT 9:10 PM CDT
Moon 10:39 PM CDT (3/29) 8:12 AM CDT (3/29)
Length of Visible Light 13h 28m
Length of Day
12h 33m
Waning Gibbous, 93% of the Moon is Illuminated
Mar 29
Waning Gibbous
Apr 2
Last Quarter
Apr 10
New
Apr 18
First Quarter
Apr 25
Full

Hourly Weather History & Observations

Time (CDT) Temp. Windchill Dew Point Humidity Pressure Visibility Wind Dir Wind Speed Gust Speed Precip Events Conditions
12:53 AM 42.1 °F 39.2 °F 33.1 °F 70% 30.25 in 10.0 mi ESE 4.6 mph - N/A   Overcast
1:53 AM 41.0 °F 38.0 °F 33.1 °F 73% 30.24 in 10.0 mi East 4.6 mph - N/A   Mostly Cloudy
2:53 AM 37.9 °F 34.4 °F 32.0 °F 79% 30.23 in 10.0 mi ENE 4.6 mph - N/A   Clear
3:53 AM 36.0 °F 32.1 °F 30.9 °F 82% 30.22 in 10.0 mi ENE 4.6 mph - N/A   Clear
4:53 AM 36.0 °F 31.1 °F 30.9 °F 82% 30.22 in 10.0 mi ENE 5.8 mph - N/A   Clear
5:53 AM 36.0 °F 31.1 °F 30.0 °F 79% 30.22 in 10.0 mi East 5.8 mph - N/A   Clear
6:53 AM 36.0 °F - 30.0 °F 79% 30.24 in 10.0 mi Calm Calm - N/A   Clear
7:53 AM 35.1 °F 32.2 °F 30.0 °F 82% 30.26 in 9.0 mi ENE 3.5 mph - N/A   Clear
8:53 AM 39.9 °F 36.7 °F 32.0 °F 73% 30.27 in 10.0 mi East 4.6 mph - N/A   Clear
9:53 AM 46.9 °F - 35.1 °F 63% 30.26 in 10.0 mi East 3.5 mph - N/A   Clear
10:53 AM 53.1 °F - 36.0 °F 52% 30.26 in 10.0 mi East 8.1 mph - N/A   Clear
11:53 AM 55.9 °F - 33.1 °F 42% 30.25 in 10.0 mi East 8.1 mph - N/A   Clear
12:53 PM 59.0 °F - 30.9 °F 35% 30.24 in 10.0 mi ESE 9.2 mph - N/A   Clear
1:53 PM 61.0 °F - 30.0 °F 31% 30.21 in 10.0 mi SSE 5.8 mph - N/A   Clear
2:53 PM 63.0 °F - 30.0 °F 29% 30.19 in 10.0 mi ESE 9.2 mph - N/A   Clear
3:53 PM 63.0 °F - 28.0 °F 27% 30.16 in 10.0 mi SE 8.1 mph - N/A   Clear
4:53 PM 63.0 °F - 28.9 °F 28% 30.15 in 10.0 mi SE 10.4 mph 16.1 mph N/A   Clear
5:53 PM 63.0 °F - 28.9 °F 28% 30.15 in 10.0 mi SSE 9.2 mph - N/A   Clear
6:53 PM 61.0 °F - 30.0 °F 31% 30.15 in 10.0 mi SE 5.8 mph - N/A   Clear
7:53 PM 55.9 °F - 30.9 °F 39% 30.15 in 10.0 mi SE 8.1 mph - N/A   Clear
8:53 PM 54.0 °F - 30.9 °F 41% 30.16 in 10.0 mi SSE 6.9 mph - N/A   Clear
10:53 PM 48.9 °F - 32.0 °F 52% 30.15 in 10.0 mi SE 10.4 mph - N/A   Clear
11:53 PM 48.9 °F - 33.1 °F 54% 30.13 in 10.0 mi SE 9.2 mph - N/A   Clear